Location: Tamazert
(32.6352°N, 5.2072°W)
Time: 22:28:50
(UTC+00:00)

Transit 2A Rocket - Pass Details

Date: 12 October 2022
Orbit: 589 x 911 km, 66.7° (Epoch: 28 November)

Event Time Altitude Azimuth Distance (km) Brightness Sun altitude
Rises 12:48:31 0° 337° (NNW) 3,096 7.8 48.7°
Reaches altitude 10° 12:50:47 10° 341° (NNW) 2,223 7.2 48.5°
Maximum altitude 12:55:51 66° 63° (ENE) 848 5.8 48.2°
Drops below altitude 10° 13:01:24 10° 146° (SE) 2,426 8.1 47.8°
Sets 13:03:58 0° 149° (SSE) 3,401 8.7 47.6°
